Malaviya Twenty — AUEV — position and weather

sailwx.info

Track history (hours):
 
Tides and Currents Weather Stations Pressure Air Temp Water Temp Dewpoint Dewpoint Depression Visibility Wind Speed Wind Dir Waves Ship Positions

Malaviya Twenty

Last reported at 2014-Jul-28 05:31 UTC. Time now 2014-Jul-28 06:15 UTC.
Position N 53°00' E 002°14'.

Length 72 m; draft 4.6 m.

Type: Ship. MMSI: 419504000.

Date/timePositionNaut miles runAvg speedWind from/ knotsBaromVisibWave heightAir tempDewpointWater temp
2014-Jul-28 05:31N 53°00' E 002°14'1 0.6
2014-Jul-28 04:26N 52°60' E 002°15'1 1.2
2014-Jul-28 03:30N 53°01' E 002°14'1 1.1
2014-Jul-28 02:17N 53°02' E 002°14'2 2.8
2014-Jul-28 01:29N 52°60' E 002°14'1 0.9
2014-Jul-28 00:32N 53°01' E 002°14'3 1.2
2014-Jul-27 22:25N 53°03' E 002°14'0 0.0
2014-Jul-27 21:33N 53°03' E 002°14'0 0.0
2014-Jul-27 20:33N 53°03' E 002°14'0 0.0
2014-Jul-27 19:33N 53°03' E 002°14'0 0.0
2014-Jul-27 18:33N 53°03' E 002°14'1 1.0
2014-Jul-27 17:33N 53°02' E 002°14'1 1.2
2014-Jul-27 16:33N 53°03' E 002°14'0 0.5
2014-Jul-27 15:33N 53°04' E 002°13'5 5.4
2014-Jul-27 14:33N 53°09' E 002°10'9 8.8
2014-Jul-27 13:33N 53°15' E 001°59'31 2.8
2014-Jul-27 02:32N 53°38' E 001°25'9 9.2
2014-Jul-27 01:33N 53°29' E 001°28'1111.2
2014-Jul-27 00:33N 53°22' E 001°43'1111.1
2014-Jul-26 23:32N 53°15' E 001°57'1110.7
2014-Jul-26 22:32N 53°08' E 002°10'5 5.5
2014-Jul-26 21:33N 53°03' E 002°14'0 0.0
2014-Jul-26 20:33N 53°03' E 002°14'0 0.0
2014-Jul-26 19:33N 53°03' E 002°14'0 0.0
2014-Jul-26 18:24N 53°03' E 002°14'0 0.4
2014-Jul-26 17:32N 53°03' E 002°14'1 0.7
2014-Jul-26 16:32N 53°04' E 002°14'0 0.1
2014-Jul-26 14:17N 53°04' E 002°14'4 2.0
2014-Jul-26 12:32N 53°00' E 002°14'1 1.1
2014-Jul-26 11:33N 53°01' E 002°14'2 1.9
2014-Jul-26 10:33N 53°03' E 002°14'0 0.0
2014-Jul-26 09:33N 53°03' E 002°14'0 0.2
2014-Jul-26 08:33N 53°03' E 002°14'0 0.0
2014-Jul-26 07:33N 53°03' E 002°14'0 0.0
2014-Jul-26 06:31N 53°03' E 002°14'0 0.1
2014-Jul-26 05:15N 53°03' E 002°14'3 2.0
2014-Jul-26 03:33N 52°59' E 002°15'1 1.0
2014-Jul-26 02:33N 53°00' E 002°14'1 0.9
2014-Jul-26 01:33N 53°01' E 002°14'1 0.6
2014-Jul-26 00:33N 53°02' E 002°14'1 0.7
2014-Jul-25 23:33N 53°01' E 002°14'1 1.4
2014-Jul-25 22:32N 53°03' E 002°14'1 0.6
2014-Jul-25 21:33N 53°03' E 002°14'0 0.0
2014-Jul-25 20:33N 53°03' E 002°14'0 0.0
2014-Jul-25 19:33N 53°03' E 002°14'1 0.9
2014-Jul-25 18:30N 53°02' E 002°14'1 0.7
2014-Jul-25 17:33N 53°02' E 002°14'2 2.0
2014-Jul-25 16:32N 53°04' E 002°13'9 9.3
2014-Jul-25 15:33N 53°11' E 002°06'1010.2
2014-Jul-25 14:33N 53°18' E 001°52'10 9.7
2014-Jul-25 13:33N 53°23' E 001°39'9 9.0
2014-Jul-25 12:33N 53°29' E 001°28'9 8.7
2014-Jul-25 11:33N 53°38' E 001°25'9 9.3
2014-Jul-25 10:33N 53°43' E 001°11'2 2.2
2014-Jul-25 09:29N 53°43' E 001°07'0 0.0
2014-Jul-25 08:33N 53°43' E 001°07'0 0.0
2014-Jul-25 07:33N 53°43' E 001°07'0 0.3
2014-Jul-25 06:33N 53°43' E 001°07'0 0.4
2014-Jul-25 05:33N 53°44' E 001°07'2 2.3
2014-Jul-25 04:34N 53°46' E 001°07'1 1.3
2014-Jul-25 03:30N 53°45' E 001°07'1 1.6
2014-Jul-25 02:33N 53°44' E 001°09'6 5.8
2014-Jul-25 01:33N 53°40' E 001°17'8 8.3
2014-Jul-25 00:33N 53°36' E 001°28'1010.4
2014-Jul-24 23:33N 53°25' E 001°28'1211.3
2014-Jul-24 22:31N 53°13' E 001°28'1111.1
2014-Jul-24 21:33N 53°03' E 001°28'1010.3
2014-Jul-24 20:33N 52°54' E 001°36'10 9.5
2014-Jul-24 19:33N 52°45' E 001°44'7 6.9
2014-Jul-24 18:33N 52°39' E 001°46'4 3.5
2014-Jul-24 17:33N 52°35' E 001°44'0 0.3
2014-Jul-24 16:33N 52°36' E 001°44'0 0.0
2014-Jul-24 15:33N 52°36' E 001°44'0 0.0
2014-Jul-24 14:33N 52°36' E 001°44'0 0.0
2014-Jul-24 13:33N 52°36' E 001°44'0 0.0
2014-Jul-24 12:33N 52°36' E 001°44'0 0.0
2014-Jul-24 11:33N 52°36' E 001°44'0 0.0
2014-Jul-24 10:33N 52°36' E 001°44'0 0.0
2014-Jul-24 09:33N 52°36' E 001°44'0 0.0
2014-Jul-24 08:33N 52°36' E 001°44'0 0.0
2014-Jul-24 07:33N 52°36' E 001°44'0 0.0
2014-Jul-24 06:33N 52°36' E 001°44'1 0.7
2014-Jul-24 05:33N 52°35' E 001°44'1 1.2
2014-Jul-24 04:33N 52°35' E 001°46'8 7.8
2014-Jul-24 03:34N 52°43' E 001°46'7 7.3
2014-Jul-24 02:33N 52°49' E 001°40'7 7.2
2014-Jul-24 01:33N 52°56' E 001°34'7 6.9
2014-Jul-24 00:33N 53°02' E 001°28'7 7.1
2014-Jul-23 23:33N 53°09' E 001°28'7 7.2
2014-Jul-23 22:33N 53°16' E 001°28'8 7.5
2014-Jul-23 21:33N 53°23' E 001°28'7 7.5
2014-Jul-23 20:33N 53°31' E 001°28'7 6.9
2014-Jul-23 19:33N 53°38' E 001°26'8 7.7
2014-Jul-23 18:33N 53°41' E 001°14'5 4.6
2014-Jul-23 17:33N 53°43' E 001°07'0 0.0
2014-Jul-23 16:33N 53°43' E 001°07'0 0.0
2014-Jul-23 15:33N 53°43' E 001°07'1 0.5
2014-Jul-23 14:33N 53°44' E 001°08'3 2.9
2014-Jul-23 13:33N 53°46' E 001°08'1 1.4
2014-Jul-23 12:33N 53°45' E 001°08'2 2.1
2014-Jul-23 11:33N 53°47' E 001°06'1 0.9
2014-Jul-23 10:32N 53°48' E 001°07'2 1.9
2014-Jul-23 09:23N 53°46' E 001°07'2 1.9
2014-Jul-23 08:33N 53°44' E 001°08'1 1.4
2014-Jul-23 07:33N 53°43' E 001°07'0 0.0
2014-Jul-23 06:33N 53°43' E 001°07'0 0.2
2014-Jul-23 05:33N 53°43' E 001°07'0 0.1
2014-Jul-23 04:34N 53°43' E 001°07'0 0.0
2014-Jul-23 03:33N 53°43' E 001°07'0 0.0
2014-Jul-23 02:33N 53°43' E 001°07'0 0.2
2014-Jul-23 01:33N 53°44' E 001°07'1 0.5
2014-Jul-23 00:33N 53°44' E 001°07'3 3.2
2014-Jul-22 23:33N 53°43' E 001°12'1111.3
2014-Jul-22 22:33N 53°36' E 001°28'1211.5
2014-Jul-22 21:33N 53°25' E 001°28'1211.6
2014-Jul-22 20:33N 53°13' E 001°28'1111.2
2014-Jul-22 19:33N 53°02' E 001°28'1110.6
2014-Jul-22 18:33N 52°53' E 001°37'10 9.8
2014-Jul-22 17:33N 52°44' E 001°45'9 8.3
2014-Jul-22 16:26N 52°35' E 001°45'1 0.2
2014-Jul-22 11:06N 52°36' E 001°44'0 0.0
2014-Jul-22 09:12N 52°36' E 001°44'0 0.0
2014-Jul-22 08:33N 52°36' E 001°44'0 0.0
2014-Jul-22 07:33N 52°36' E 001°44'0 0.0
2014-Jul-22 06:33N 52°36' E 001°44'0 0.0
2014-Jul-22 05:33N 52°36' E 001°44'0 0.0
2014-Jul-22 04:33N 52°36' E 001°44'0 0.0
2014-Jul-22 03:33N 52°36' E 001°44'0 0.0
2014-Jul-22 02:33N 52°36' E 001°44'0 0.0
2014-Jul-22 01:33N 52°36' E 001°44'2 1.5
2014-Jul-22 00:33N 52°35' E 001°46'0 0.0
2014-Jul-21 23:34N 52°35' E 001°46'1 1.2
2014-Jul-21 22:33N 52°36' E 001°46'10 9.8
2014-Jul-21 21:34N 52°45' E 001°50'1111.2
2014-Jul-21 20:33N 52°54' E 002°02'311.8
2014-Jul-21 20:17N 52°56' E 002°06'8 0.7
2014-Jul-21 09:19N 53°02' E 002°14'0 0.6
2014-Jul-21 08:30N 53°02' E 002°14'1 1.0
2014-Jul-21 07:34N 53°03' E 002°14'0 0.0
2014-Jul-21 06:33N 53°03' E 002°14'0 0.0
2014-Jul-21 05:03N 53°03' E 002°14'0 0.0
2014-Jul-21 04:34N 53°03' E 002°14'0 0.2
2014-Jul-21 03:33N 53°03' E 002°14'0 0.2
2014-Jul-21 02:26N 53°03' E 002°14'1 1.4
2014-Jul-21 01:33N 53°02' E 002°14'1 0.6
2014-Jul-21 00:33N 53°01' E 002°14'1 0.9
2014-Jul-20 23:33N 53°02' E 002°14'3 3.3
2014-Jul-20 22:32N 52°59' E 002°18'2 1.8
2014-Jul-20 21:14N 53°00' E 002°14'1 1.3
2014-Jul-20 20:34N 53°01' E 002°14'0 0.3
2014-Jul-20 19:34N 53°02' E 002°14'0 0.1
2014-Jul-20 18:16N 53°01' E 002°14'1 1.0
2014-Jul-20 17:32N 53°01' E 002°14'1 0.5
2014-Jul-20 15:28N 52°60' E 002°14'3 3.6
2014-Jul-20 14:34N 53°03' E 002°14'1 0.3
2014-Jul-20 11:19N 53°02' E 002°14'0 0.3
2014-Jul-20 10:34N 53°02' E 002°14'0 0.1
2014-Jul-20 09:32N 53°02' E 002°14'1 0.7
2014-Jul-20 08:33N 53°02' E 002°14'1 1.3
2014-Jul-20 07:31N 53°00' E 002°14'1 1.2
2014-Jul-20 06:33N 53°01' E 002°14'0 0.2
2014-Jul-20 05:33N 53°01' E 002°14'2 1.4
2014-Jul-20 04:20N 52°60' E 002°15'0 0.1
2014-Jul-20 03:34N 52°60' E 002°15'3 3.0
2014-Jul-20 02:33N 53°03' E 002°14'1 0.5
2014-Jul-20 01:34N 53°03' E 002°14'2 1.3
2014-Jul-20 00:20N 53°02' E 002°14'1 1.1
2014-Jul-19 23:30N 53°02' E 002°14'0 0.4
2014-Jul-19 22:21N 53°02' E 002°14'0 0.4
2014-Jul-19 21:33N 53°02' E 002°14'1 0.6
2014-Jul-19 20:33N 53°02' E 002°14'0 0.3
2014-Jul-19 19:33N 53°02' E 002°14'0 0.3
2014-Jul-19 18:33N 53°02' E 002°14'5 4.8
2014-Jul-19 17:33N 52°60' E 002°21'20 6.2
2014-Jul-19 14:20N 53°18' E 002°34'0 0.4
2014-Jul-19 13:34N 53°18' E 002°34'0 0.0
2014-Jul-19 12:30N 53°18' E 002°34'0 0.2
2014-Jul-19 11:06N 53°18' E 002°34'0 0.0
2014-Jul-19 10:33N 53°18' E 002°34'12 2.3
2014-Jul-19 05:13N 53°07' E 002°28'7 9.9
2014-Jul-19 04:34N 53°00' E 002°24'7 6.5
2014-Jul-19 03:34N 53°03' E 002°14'0 0.0
2014-Jul-19 02:33N 53°03' E 002°14'0 0.0
2014-Jul-19 01:33N 53°03' E 002°14'0 0.0
2014-Jul-19 00:34N 53°03' E 002°14'0 0.0
2014-Jul-18 23:33N 53°03' E 002°14'0 0.4
2014-Jul-18 22:34N 53°03' E 002°14'1 1.3
2014-Jul-18 21:33N 53°01' E 002°14'1 1.2
2014-Jul-18 20:34N 53°00' E 002°14'1 0.5
2014-Jul-18 19:34N 53°01' E 002°14'0 0.3
2014-Jul-18 18:34N 53°01' E 002°14'1 0.6
2014-Jul-18 17:33N 53°02' E 002°14'1 1.1
2014-Jul-18 16:33N 53°01' E 002°14'1 0.9
2014-Jul-18 15:33N 52°60' E 002°14'3 2.9
2014-Jul-18 14:34N 53°03' E 002°14'0 0.0
2014-Jul-18 13:34N 53°03' E 002°14'0 0.0
2014-Jul-18 12:28N 53°03' E 002°14'0 0.0
2014-Jul-18 11:34N 53°03' E 002°14'0 0.0
2014-Jul-18 10:33N 53°03' E 002°14'1 0.6
2014-Jul-18 09:34N 53°02' E 002°14'2 1.6
2014-Jul-18 08:18N 53°00' E 002°15'  
Track history (hours):
 
Tides and Currents Weather Stations Pressure Air Temp Water Temp Dewpoint Dewpoint Depression Visibility Wind Speed Wind Dir Waves Ship Positions

Malaviya Twenty

Last reported at 2014-Jul-28 05:31 UTC. Time now 2014-Jul-28 06:15 UTC.
Position N 53°00' E 002°14'.

Length 72 m; draft 4.6 m.

Type: Ship. MMSI: 419504000.

Date/timePositionNaut miles runAvg speedWind from/ knotsBaromVisibWave heightAir tempDewpointWater temp
2014-Jul-28 05:31N 53°00' E 002°14'1 0.6
2014-Jul-28 04:26N 52°60' E 002°15'1 1.2
2014-Jul-28 03:30N 53°01' E 002°14'1 1.1
2014-Jul-28 02:17N 53°02' E 002°14'2 2.8
2014-Jul-28 01:29N 52°60' E 002°14'1 0.9
2014-Jul-28 00:32N 53°01' E 002°14'3 1.2
2014-Jul-27 22:25N 53°03' E 002°14'0 0.0
2014-Jul-27 21:33N 53°03' E 002°14'0 0.0
2014-Jul-27 20:33N 53°03' E 002°14'0 0.0
2014-Jul-27 19:33N 53°03' E 002°14'0 0.0
2014-Jul-27 18:33N 53°03' E 002°14'1 1.0
2014-Jul-27 17:33N 53°02' E 002°14'1 1.2
2014-Jul-27 16:33N 53°03' E 002°14'0 0.5
2014-Jul-27 15:33N 53°04' E 002°13'5 5.4
2014-Jul-27 14:33N 53°09' E 002°10'9 8.8
2014-Jul-27 13:33N 53°15' E 001°59'31 2.8
2014-Jul-27 02:32N 53°38' E 001°25'9 9.2
2014-Jul-27 01:33N 53°29' E 001°28'1111.2
2014-Jul-27 00:33N 53°22' E 001°43'1111.1
2014-Jul-26 23:32N 53°15' E 001°57'1110.7
2014-Jul-26 22:32N 53°08' E 002°10'5 5.5
2014-Jul-26 21:33N 53°03' E 002°14'0 0.0
2014-Jul-26 20:33N 53°03' E 002°14'0 0.0
2014-Jul-26 19:33N 53°03' E 002°14'0 0.0
2014-Jul-26 18:24N 53°03' E 002°14'0 0.4
2014-Jul-26 17:32N 53°03' E 002°14'1 0.7
2014-Jul-26 16:32N 53°04' E 002°14'0 0.1
2014-Jul-26 14:17N 53°04' E 002°14'4 2.0
2014-Jul-26 12:32N 53°00' E 002°14'1 1.1
2014-Jul-26 11:33N 53°01' E 002°14'2 1.9
2014-Jul-26 10:33N 53°03' E 002°14'0 0.0
2014-Jul-26 09:33N 53°03' E 002°14'0 0.2
2014-Jul-26 08:33N 53°03' E 002°14'0 0.0
2014-Jul-26 07:33N 53°03' E 002°14'0 0.0
2014-Jul-26 06:31N 53°03' E 002°14'0 0.1
2014-Jul-26 05:15N 53°03' E 002°14'3 2.0
2014-Jul-26 03:33N 52°59' E 002°15'1 1.0
2014-Jul-26 02:33N 53°00' E 002°14'1 0.9
2014-Jul-26 01:33N 53°01' E 002°14'1 0.6
2014-Jul-26 00:33N 53°02' E 002°14'1 0.7
2014-Jul-25 23:33N 53°01' E 002°14'1 1.4
2014-Jul-25 22:32N 53°03' E 002°14'1 0.6
2014-Jul-25 21:33N 53°03' E 002°14'0 0.0
2014-Jul-25 20:33N 53°03' E 002°14'0 0.0
2014-Jul-25 19:33N 53°03' E 002°14'1 0.9
2014-Jul-25 18:30N 53°02' E 002°14'1 0.7
2014-Jul-25 17:33N 53°02' E 002°14'2 2.0
2014-Jul-25 16:32N 53°04' E 002°13'9 9.3
2014-Jul-25 15:33N 53°11' E 002°06'1010.2
2014-Jul-25 14:33N 53°18' E 001°52'10 9.7
2014-Jul-25 13:33N 53°23' E 001°39'9 9.0
2014-Jul-25 12:33N 53°29' E 001°28'9 8.7
2014-Jul-25 11:33N 53°38' E 001°25'9 9.3
2014-Jul-25 10:33N 53°43' E 001°11'2 2.2
2014-Jul-25 09:29N 53°43' E 001°07'0 0.0
2014-Jul-25 08:33N 53°43' E 001°07'0 0.0
2014-Jul-25 07:33N 53°43' E 001°07'0 0.3
2014-Jul-25 06:33N 53°43' E 001°07'0 0.4
2014-Jul-25 05:33N 53°44' E 001°07'2 2.3
2014-Jul-25 04:34N 53°46' E 001°07'1 1.3
2014-Jul-25 03:30N 53°45' E 001°07'1 1.6
2014-Jul-25 02:33N 53°44' E 001°09'6 5.8
2014-Jul-25 01:33N 53°40' E 001°17'8 8.3
2014-Jul-25 00:33N 53°36' E 001°28'1010.4
2014-Jul-24 23:33N 53°25' E 001°28'1211.3
2014-Jul-24 22:31N 53°13' E 001°28'1111.1
2014-Jul-24 21:33N 53°03' E 001°28'1010.3
2014-Jul-24 20:33N 52°54' E 001°36'10 9.5
2014-Jul-24 19:33N 52°45' E 001°44'7 6.9
2014-Jul-24 18:33N 52°39' E 001°46'4 3.5
2014-Jul-24 17:33N 52°35' E 001°44'0 0.3
2014-Jul-24 16:33N 52°36' E 001°44'0 0.0
2014-Jul-24 15:33N 52°36' E 001°44'0 0.0
2014-Jul-24 14:33N 52°36' E 001°44'0 0.0
2014-Jul-24 13:33N 52°36' E 001°44'0 0.0
2014-Jul-24 12:33N 52°36' E 001°44'0 0.0
2014-Jul-24 11:33N 52°36' E 001°44'0 0.0
2014-Jul-24 10:33N 52°36' E 001°44'0 0.0
2014-Jul-24 09:33N 52°36' E 001°44'0 0.0
2014-Jul-24 08:33N 52°36' E 001°44'0 0.0
2014-Jul-24 07:33N 52°36' E 001°44'0 0.0
2014-Jul-24 06:33N 52°36' E 001°44'1 0.7
2014-Jul-24 05:33N 52°35' E 001°44'1 1.2
2014-Jul-24 04:33N 52°35' E 001°46'8 7.8
2014-Jul-24 03:34N 52°43' E 001°46'7 7.3
2014-Jul-24 02:33N 52°49' E 001°40'7 7.2
2014-Jul-24 01:33N 52°56' E 001°34'7 6.9
2014-Jul-24 00:33N 53°02' E 001°28'7 7.1
2014-Jul-23 23:33N 53°09' E 001°28'7 7.2
2014-Jul-23 22:33N 53°16' E 001°28'8 7.5
2014-Jul-23 21:33N 53°23' E 001°28'7 7.5
2014-Jul-23 20:33N 53°31' E 001°28'7 6.9
2014-Jul-23 19:33N 53°38' E 001°26'8 7.7
2014-Jul-23 18:33N 53°41' E 001°14'5 4.6
2014-Jul-23 17:33N 53°43' E 001°07'0 0.0
2014-Jul-23 16:33N 53°43' E 001°07'0 0.0
2014-Jul-23 15:33N 53°43' E 001°07'1 0.5
2014-Jul-23 14:33N 53°44' E 001°08'3 2.9
2014-Jul-23 13:33N 53°46' E 001°08'1 1.4
2014-Jul-23 12:33N 53°45' E 001°08'2 2.1
2014-Jul-23 11:33N 53°47' E 001°06'1 0.9
2014-Jul-23 10:32N 53°48' E 001°07'2 1.9
2014-Jul-23 09:23N 53°46' E 001°07'2 1.9
2014-Jul-23 08:33N 53°44' E 001°08'1 1.4
2014-Jul-23 07:33N 53°43' E 001°07'0 0.0
2014-Jul-23 06:33N 53°43' E 001°07'0 0.2
2014-Jul-23 05:33N 53°43' E 001°07'0 0.1
2014-Jul-23 04:34N 53°43' E 001°07'0 0.0
2014-Jul-23 03:33N 53°43' E 001°07'0 0.0
2014-Jul-23 02:33N 53°43' E 001°07'0 0.2
2014-Jul-23 01:33N 53°44' E 001°07'1 0.5
2014-Jul-23 00:33N 53°44' E 001°07'3 3.2
2014-Jul-22 23:33N 53°43' E 001°12'1111.3
2014-Jul-22 22:33N 53°36' E 001°28'1211.5
2014-Jul-22 21:33N 53°25' E 001°28'1211.6
2014-Jul-22 20:33N 53°13' E 001°28'1111.2
2014-Jul-22 19:33N 53°02' E 001°28'1110.6
2014-Jul-22 18:33N 52°53' E 001°37'10 9.8
2014-Jul-22 17:33N 52°44' E 001°45'9 8.3
2014-Jul-22 16:26N 52°35' E 001°45'1 0.2
2014-Jul-22 11:06N 52°36' E 001°44'0 0.0
2014-Jul-22 09:12N 52°36' E 001°44'0 0.0
2014-Jul-22 08:33N 52°36' E 001°44'0 0.0
2014-Jul-22 07:33N 52°36' E 001°44'0 0.0
2014-Jul-22 06:33N 52°36' E 001°44'0 0.0
2014-Jul-22 05:33N 52°36' E 001°44'0 0.0
2014-Jul-22 04:33N 52°36' E 001°44'0 0.0
2014-Jul-22 03:33N 52°36' E 001°44'0 0.0
2014-Jul-22 02:33N 52°36' E 001°44'0 0.0
2014-Jul-22 01:33N 52°36' E 001°44'2 1.5
2014-Jul-22 00:33N 52°35' E 001°46'0 0.0
2014-Jul-21 23:34N 52°35' E 001°46'1 1.2
2014-Jul-21 22:33N 52°36' E 001°46'10 9.8
2014-Jul-21 21:34N 52°45' E 001°50'1111.2
2014-Jul-21 20:33N 52°54' E 002°02'311.8
2014-Jul-21 20:17N 52°56' E 002°06'8 0.7
2014-Jul-21 09:19N 53°02' E 002°14'0 0.6
2014-Jul-21 08:30N 53°02' E 002°14'1 1.0
2014-Jul-21 07:34N 53°03' E 002°14'0 0.0
2014-Jul-21 06:33N 53°03' E 002°14'0 0.0
2014-Jul-21 05:03N 53°03' E 002°14'0 0.0
2014-Jul-21 04:34N 53°03' E 002°14'0 0.2
2014-Jul-21 03:33N 53°03' E 002°14'0 0.2
2014-Jul-21 02:26N 53°03' E 002°14'1 1.4
2014-Jul-21 01:33N 53°02' E 002°14'1 0.6
2014-Jul-21 00:33N 53°01' E 002°14'1 0.9
2014-Jul-20 23:33N 53°02' E 002°14'3 3.3
2014-Jul-20 22:32N 52°59' E 002°18'2 1.8
2014-Jul-20 21:14N 53°00' E 002°14'1 1.3
2014-Jul-20 20:34N 53°01' E 002°14'0 0.3
2014-Jul-20 19:34N 53°02' E 002°14'0 0.1
2014-Jul-20 18:16N 53°01' E 002°14'1 1.0
2014-Jul-20 17:32N 53°01' E 002°14'1 0.5
2014-Jul-20 15:28N 52°60' E 002°14'3 3.6
2014-Jul-20 14:34N 53°03' E 002°14'1 0.3
2014-Jul-20 11:19N 53°02' E 002°14'0 0.3
2014-Jul-20 10:34N 53°02' E 002°14'0 0.1
2014-Jul-20 09:32N 53°02' E 002°14'1 0.7
2014-Jul-20 08:33N 53°02' E 002°14'1 1.3
2014-Jul-20 07:31N 53°00' E 002°14'1 1.2
2014-Jul-20 06:33N 53°01' E 002°14'0 0.2
2014-Jul-20 05:33N 53°01' E 002°14'2 1.4
2014-Jul-20 04:20N 52°60' E 002°15'0 0.1
2014-Jul-20 03:34N 52°60' E 002°15'3 3.0
2014-Jul-20 02:33N 53°03' E 002°14'1 0.5
2014-Jul-20 01:34N 53°03' E 002°14'2 1.3
2014-Jul-20 00:20N 53°02' E 002°14'1 1.1
2014-Jul-19 23:30N 53°02' E 002°14'0 0.4
2014-Jul-19 22:21N 53°02' E 002°14'0 0.4
2014-Jul-19 21:33N 53°02' E 002°14'1 0.6
2014-Jul-19 20:33N 53°02' E 002°14'0 0.3
2014-Jul-19 19:33N 53°02' E 002°14'0 0.3
2014-Jul-19 18:33N 53°02' E 002°14'5 4.8
2014-Jul-19 17:33N 52°60' E 002°21'20 6.2
2014-Jul-19 14:20N 53°18' E 002°34'0 0.4
2014-Jul-19 13:34N 53°18' E 002°34'0 0.0
2014-Jul-19 12:30N 53°18' E 002°34'0 0.2
2014-Jul-19 11:06N 53°18' E 002°34'0 0.0
2014-Jul-19 10:33N 53°18' E 002°34'12 2.3
2014-Jul-19 05:13N 53°07' E 002°28'7 9.9
2014-Jul-19 04:34N 53°00' E 002°24'7 6.5
2014-Jul-19 03:34N 53°03' E 002°14'0 0.0
2014-Jul-19 02:33N 53°03' E 002°14'0 0.0
2014-Jul-19 01:33N 53°03' E 002°14'0 0.0
2014-Jul-19 00:34N 53°03' E 002°14'0 0.0
2014-Jul-18 23:33N 53°03' E 002°14'0 0.4
2014-Jul-18 22:34N 53°03' E 002°14'1 1.3
2014-Jul-18 21:33N 53°01' E 002°14'1 1.2
2014-Jul-18 20:34N 53°00' E 002°14'1 0.5
2014-Jul-18 19:34N 53°01' E 002°14'0 0.3
2014-Jul-18 18:34N 53°01' E 002°14'1 0.6
2014-Jul-18 17:33N 53°02' E 002°14'1 1.1
2014-Jul-18 16:33N 53°01' E 002°14'1 0.9
2014-Jul-18 15:33N 52°60' E 002°14'3 2.9
2014-Jul-18 14:34N 53°03' E 002°14'0 0.0
2014-Jul-18 13:34N 53°03' E 002°14'0 0.0
2014-Jul-18 12:28N 53°03' E 002°14'0 0.0
2014-Jul-18 11:34N 53°03' E 002°14'0 0.0
2014-Jul-18 10:33N 53°03' E 002°14'1 0.6
2014-Jul-18 09:34N 53°02' E 002°14'2 1.6
2014-Jul-18 08:18N 53°00' E 002°15'  

Dump ship's entire track history